Location: Fuglau
(48.6333°N, 15.5500°E)
Time: 23:24:42
(UTC+00:00)

Resurs 01 Rocket - Pass Details

Date: 27 February 2020
Orbit: 634 x 644 km, 98.0° (Epoch: 09 April)

Event Time Altitude Azimuth Distance (km) Brightness Sun altitude
Exits shadow 17:33:50 10° 60° (ENE) 2,050 3.7 -10.1°
Reaches altitude 10° 17:34:08 10° 56° (NE) 2,042 3.7 -10.1°
Maximum altitude 17:34:18 10° 54° (NE) 2,041 3.7 -10.2°
Drops below altitude 10° 17:34:26 10° 52° (NE) 2,042 3.7 -10.2°
Sets 17:39:15 0° 5° (N) 2,956 5.0 -11.0°
